TimeCST,TemperatureF,Dew PointF,Humidity,Sea Level PressureIn,VisibilityMPH,Wind Direction,Wind SpeedMPH,Gust SpeedMPH,PrecipitationIn,Events,Conditions,WindDirDegrees,DateUTC
12:03 AM,33.8,33.8,100,30.03,1.8,Calm,Calm,-,N/A,,Overcast,0,2013-01-01 06:03:00
12:30 AM,33.8,33.8,100,30.04,0.8,Calm,Calm,-,N/A,,Overcast,0,2013-01-01 06:30:00
12:43 AM,33.8,33.8,100,30.03,0.5,Calm,Calm,-,N/A,Fog,Fog,0,2013-01-01 06:43:00
12:50 AM,35.6,35.6,100,30.04,0.5,Calm,Calm,-,N/A,Fog,Fog,0,2013-01-01 06:50:00
12:53 AM,35.1,35.1,100,30.06,0.5,Calm,Calm,-,N/A,Fog,Fog,0,2013-01-01 06:53:00
1:12 AM,35.6,33.8,93,30.04,0.2,Calm,Calm,-,N/A,Fog,Fog,0,2013-01-01 07:12:00
1:20 AM,35.6,33.8,93,30.04,0.5,Calm,Calm,-,N/A,Fog,Fog,0,2013-01-01 07:20:00
1:30 AM,35.6,35.6,100,30.03,0.2,Calm,Calm,-,N/A,Fog,Fog,0,2013-01-01 07:30:00
1:46 AM,35.6,33.8,93,30.03,0.5,NE,3.5,-,N/A,Fog,Fog,50,2013-01-01 07:46:00
1:53 AM,35.1,35.1,100,30.05,0.5,Calm,Calm,-,N/A,Fog,Fog,0,2013-01-01 07:53:00
2:08 AM,35.6,35.6,100,30.04,0.8,Calm,Calm,-,N/A,,Mist,0,2013-01-01 08:08:00
2:17 AM,35.6,35.6,100,30.05,0.5,East,3.5,-,N/A,Fog,Fog,80,2013-01-01 08:17:00
2:50 AM,35.6,35.6,100,30.05,0.2,Calm,Calm,-,N/A,Fog,Fog,0,2013-01-01 08:50:00
2:53 AM,35.1,35.1,100,30.07,0.2,Calm,Calm,-,N/A,Fog,Fog,0,2013-01-01 08:53:00
3:07 AM,35.6,35.6,100,30.06,0.5,Calm,Calm,-,N/A,Fog,Fog,0,2013-01-01 09:07:00
3:14 AM,35.6,35.6,100,30.06,1.0,Calm,Calm,-,N/A,,Mist,0,2013-01-01 09:14:00
3:25 AM,35.6,35.6,100,30.05,0.5,Calm,Calm,-,N/A,Fog,Fog,0,2013-01-01 09:25:00
3:36 AM,35.6,33.8,93,30.05,1.0,NE,3.5,-,N/A,,Mist,40,2013-01-01 09:36:00
3:53 AM,35.1,34.0,96,30.07,1.0,Variable,3.5,-,N/A,,Overcast,0,2013-01-01 09:53:00
4:42 AM,35.6,33.8,93,30.03,0.8,ENE,3.5,-,N/A,,Overcast,60,2013-01-01 10:42:00
4:53 AM,35.1,34.0,96,30.05,1.0,Calm,Calm,-,N/A,,Overcast,0,2013-01-01 10:53:00
5:22 AM,35.6,33.8,93,30.06,2.0,Calm,Calm,-,N/A,,Overcast,0,2013-01-01 11:22:00
5:34 AM,35.6,33.8,93,30.06,3.0,Calm,Calm,-,N/A,,Overcast,0,2013-01-01 11:34:00
5:53 AM,35.1,34.0,96,30.09,4.0,NNW,3.5,-,N/A,,Overcast,330,2013-01-01 11:53:00
6:44 AM,35.6,33.8,93,30.07,2.5,NE,3.5,-,N/A,,Overcast,50,2013-01-01 12:44:00
6:53 AM,35.1,34.0,96,30.10,3.0,North,3.5,-,N/A,,Overcast,360,2013-01-01 12:53:00
7:08 AM,35.6,33.8,93,30.08,2.5,Calm,Calm,-,N/A,,Overcast,0,2013-01-01 13:08:00
7:21 AM,35.6,35.6,100,30.12,3.0,NNW,3.5,-,N/A,,Overcast,330,2013-01-01 13:21:00
7:39 AM,35.6,35.6,100,30.12,6.0,NNW,3.5,-,N/A,,Overcast,330,2013-01-01 13:39:00
7:51 AM,35.6,33.8,93,30.10,4.0,Variable,3.5,-,N/A,,Overcast,0,2013-01-01 13:51:00
7:53 AM,35.1,34.0,96,30.12,4.0,North,3.5,-,N/A,,Overcast,350,2013-01-01 13:53:00
8:12 AM,35.6,33.8,93,30.10,7.0,Calm,Calm,-,N/A,,Overcast,0,2013-01-01 14:12:00
8:29 AM,35.6,33.8,93,30.08,8.0,Variable,4.6,-,N/A,,Overcast,0,2013-01-01 14:29:00
8:36 AM,35.6,33.8,93,30.09,8.0,ENE,5.8,-,N/A,,Overcast,60,2013-01-01 14:36:00
8:53 AM,35.1,34.0,96,30.12,7.0,NE,5.8,-,N/A,,Overcast,40,2013-01-01 14:53:00
9:14 AM,35.6,33.8,93,30.12,4.0,North,5.8,-,0.00,Rain,Light Rain,10,2013-01-01 15:14:00
9:34 AM,35.6,33.8,93,30.15,5.0,North,4.6,-,0.00,Rain,Light Freezing Rain,360,2013-01-01 15:34:00
9:53 AM,34.0,33.1,96,30.17,6.0,NNE,4.6,-,0.00,Rain,Light Freezing Rain,20,2013-01-01 15:53:00
10:02 AM,33.8,33.8,100,30.15,6.0,NNE,5.8,-,0.00,,Overcast,20,2013-01-01 16:02:00
10:15 AM,33.8,33.8,100,30.15,7.0,Variable,4.6,-,0.00,,Overcast,0,2013-01-01 16:15:00
10:53 AM,35.1,32.0,89,30.19,7.0,North,3.5,-,0.00,,Overcast,10,2013-01-01 16:53:00
11:53 AM,35.1,32.0,89,30.15,8.0,Variable,3.5,-,N/A,,Overcast,0,2013-01-01 17:53:00
12:04 PM,35.6,32.0,87,30.13,8.0,ENE,5.8,-,N/A,,Overcast,60,2013-01-01 18:04:00
12:53 PM,35.1,32.0,89,30.15,8.0,Calm,Calm,-,N/A,,Overcast,0,2013-01-01 18:53:00
1:53 PM,34.0,30.9,89,30.15,4.0,North,5.8,-,N/A,,Overcast,360,2013-01-01 19:53:00
2:33 PM,33.8,30.2,87,30.13,2.5,North,4.6,-,N/A,,Overcast,360,2013-01-01 20:33:00
2:53 PM,32.0,30.0,92,30.16,2.0,North,3.5,-,N/A,,Overcast,360,2013-01-01 20:53:00
3:06 PM,32.0,30.2,93,30.15,1.5,North,5.8,-,0.00,Snow,Light Snow,350,2013-01-01 21:06:00
3:53 PM,32.0,30.0,92,30.18,1.5,NNW,3.5,-,0.00,Snow,Light Snow,340,2013-01-01 21:53:00
4:26 PM,32.0,30.2,93,30.17,2.0,Calm,Calm,-,0.00,Snow,Light Snow,0,2013-01-01 22:26:00
4:41 PM,32.0,30.2,93,30.18,4.0,NNW,3.5,-,0.00,,Overcast,340,2013-01-01 22:41:00
4:53 PM,32.0,30.0,92,30.20,4.0,NNW,4.6,-,0.00,,Overcast,340,2013-01-01 22:53:00
5:07 PM,30.2,28.4,93,30.19,6.0,NNW,6.9,-,N/A,,Overcast,340,2013-01-01 23:07:00
5:36 PM,30.2,28.4,93,30.19,7.0,Calm,Calm,-,N/A,,Overcast,0,2013-01-01 23:36:00
5:53 PM,30.9,28.0,89,30.21,7.0,Calm,Calm,-,N/A,,Overcast,0,2013-01-01 23:53:00
6:46 PM,30.2,26.6,86,30.20,7.0,Calm,Calm,-,N/A,,Overcast,0,2013-01-02 00:46:00
6:53 PM,30.0,27.0,88,30.22,8.0,Variable,3.5,-,N/A,,Overcast,0,2013-01-02 00:53:00
7:53 PM,30.0,26.1,85,30.23,7.0,Variable,3.5,-,N/A,,Overcast,0,2013-01-02 01:53:00
8:53 PM,28.9,21.9,75,30.25,9.0,Variable,5.8,-,N/A,,Overcast,0,2013-01-02 02:53:00
9:53 PM,27.0,19.9,75,30.24,9.0,Calm,Calm,-,N/A,,Clear,0,2013-01-02 03:53:00
10:53 PM,25.0,19.9,81,30.25,8.0,Calm,Calm,-,N/A,,Clear,0,2013-01-02 04:53:00
11:53 PM,24.1,19.9,84,30.26,8.0,NNW,3.5,-,N/A,,Clear,340,2013-01-02 05:53:00